Hourly Weather Roundup
Issued by NWS Central Illinois

Current Version | Previous Version | Text Only | Print | Product List | Glossary On
Versions: 1 2 3 4 5 6 7 8 9 10 11 12 13 14 15 16 17 18 19 20 21 22 23 24 25 26 27 28 29 30 31 32 33 34 35 36 37 38 39 40 41 42 43 44 45 46 47 48 49 50
000
NZUS43 KILX 100110
HWRILX

Area Weather Roundup
National Weather Service Lincoln IL
800 PM CDT TUE AUG 09 2022

NOTE:  "FAIR" indicates few or no clouds below 12,000 feet, with
       no sigificant weather and/or obstructions to visibility.


CITY           SKY/WX    TMP DP  RH WIND       PRES   REMARKS
Bloomington    CLEAR     71  64  78 NE5       30.10R
Champaign      PTCLDY    72  63  73 NE9       30.08R
Danville       CLEAR     70  65  85 N5        30.09R
Decatur        MOCLDY    73  70  90 NE5       30.08R
Effingham      MOCLDY    72  68  87 CALM      30.08S
Flora          CLOUDY    73  70  88 N5        30.06S
Galesburg        N/A     68  64  86 NE5       30.10S
Jacksonville     N/A     71  67  85 NE3       30.08R
Lacon          CLOUDY    74  67  78 CALM      30.08R
Lawrenceville  CLOUDY    74  70  87 NE6       30.05R
Litchfield     PTCLDY    72  67  84 CALM      30.09R
$$


CITY           SKY/WX    TMP DP  RH WIND       PRES   REMARKS
Lincoln        CLEAR     73  66  81 N3        30.07S
Macomb         CLEAR     71  63  76 NE3       30.10S
Mattoon        CLOUDY    73  65  75 N3        30.07R
Mt Carmel AP   CLOUDY    76  72  86 NE6       30.05R
Olney-Noble AP NOT AVBL
Paris AP       CLOUDY    72  68  88 CALM      30.08S
Peoria         CLEAR     74  61  63 N3        30.08R
Pontiac        CLEAR     69  67  94 E3        30.10R
Rantoul        CLEAR     71  62  74 NE6       30.09R
Robinson       CLOUDY    71  68  89 N3        30.06S
Springfield    CLEAR     73  64  73 NE5       30.07S
Taylorville    CLOUDY    73  68  86 CALM      30.08R
$$

...REGIONAL REPORTS...


CITY           SKY/WX    TMP DP  RH WIND       PRES   REMARKS
Chicago O`Hare PTCLDY    70  53  54 NE7       30.10R
Kankakee       CLEAR     64  57  77 NE6       30.11R
La Salle       CLEAR     70  65  83 CALM      30.09S
Moline         CLEAR     76  59  55 NE5       30.08S
Mount Sterling CLEAR     72  63  72 NE3       30.08R
Mount Vernon   NOT AVBL
Pittsfield     CLEAR     74  66  75 CALM      30.08S
Quincy         CLEAR     75  62  64 N6        30.07R
Rockford       CLEAR     73  61  65 CALM      30.11R
$$


CITY           SKY/WX    TMP DP  RH WIND       PRES   REMARKS
Burlington     CLEAR     74  61  63 NE5       30.08S
Cedar Rapids   CLEAR     71  64  78 E6        30.09R
Des Moines     CLEAR     80  57  45 E5        30.07S HX  80
Kirksville     CLEAR     73  62  68 NE6       30.09R
Ottumwa        CLEAR     78  58  49 E6        30.07R
St Louis       MOCLDY    76  67  73 E7        30.06S
$$


CITY           SKY/WX    TMP DP  RH WIND       PRES   REMARKS
Terre Haute    PTCLDY    72  68  87 CALM      30.06S
Evansville     MOCLDY    78  73  84 N7        30.03S HX  81
Indianapolis   MOCLDY    71  66  84 NE8       30.06R
Lafayette      CLEAR     72  62  71 N6        30.06R
Madison        CLEAR     71  60  68 CALM      30.08S
Milwaukee      PTCLDY    68  55  63 SE6       30.10R
$$





USA.gov is the U.S. government's official web portal to all federal, state and local government web resources and services.